Location: Beverley
(50.2667°N, 107.9667°W)
Time: 10:57:34
(UTC+00:00)

LO-87 - Visible Passes

Search period start: 25 June 2022 00:00
Search period end: 05 July 2022 00:00
Orbit: 454 x 468 km, 97.4° (Epoch: 25 June)

Date Brightness Start Highest point End Pass type
(mag) Time Alt. Az. Time Alt. Az. Time Alt. Az.
25 Jun ? 06:16:50 28° SE 06:18:19 50° ENE 06:21:42 10° N visible
25 Jun ? 07:50:42 12° WSW 07:51:38 13° W 07:53:22 10° WNW visible
26 Jun ? 05:45:01 15° ESE 05:46:59 23° ENE 05:49:46 10° NNE visible
26 Jun ? 07:18:53 24° SW 07:19:51 28° W 07:22:55 10° NW visible
27 Jun ? 05:14:27 10° E 05:15:45 12° ENE 05:17:01 10° NE visible
27 Jun ? 06:47:03 38° S 06:48:14 69° W 06:51:41 10° NNW visible
28 Jun ? 06:15:11 27° SE 06:16:42 48° ENE 06:20:03 10° N visible
28 Jun ? 07:49:04 13° WSW 07:49:58 14° W 07:51:50 10° WNW visible
29 Jun ? 05:43:19 14° ESE 05:45:17 22° ENE 05:48:02 10° NNE visible
29 Jun ? 07:17:11 25° SW 07:18:09 30° W 07:21:15 10° NNW visible
30 Jun ? 05:12:53 10° ENE 05:14:00 11° ENE 05:15:07 10° NE visible
30 Jun ? 06:45:17 39° S 06:46:27 73° WSW 06:49:55 10° NNW visible
01 Jul ? 06:13:23 27° SE 06:14:52 45° ENE 06:18:13 10° N visible
01 Jul ? 07:47:15 14° WSW 07:48:07 15° W 07:50:07 10° NW visible
02 Jul ? 05:41:27 14° ESE 05:43:25 21° ENE 05:46:07 10° NNE visible
02 Jul ? 07:15:19 27° SW 07:16:14 31° W 07:19:24 10° NNW visible
03 Jul ? 05:11:12 10° ENE 05:12:04 11° ENE 05:12:57 10° NE visible
03 Jul ? 06:43:22 40° S 06:44:29 78° WSW 06:47:59 10° NNW visible
04 Jul ? 06:11:23 26° SE 06:12:52 43° ENE 06:16:11 10° N visible
04 Jul ? 07:45:15 14° WSW 07:46:04 15° W 07:48:14 10° NW visible
